Preview of NWS' New Version of Forecast
This preview is not operational and should not be used for support decisions.

Regional Weather Roundup (RWR)

Issued by Gray - Portland, ME (GYX)

                            
000
ASUS41 KGYX 221810
RWRGYX
WEATHER ROUNDUP FOR MAINE AND NEW HAMPSHIRE
NATIONAL WEATHER SERVICE GRAY ME
200 PM EDT WED MAY 22 2019

MEZ002-005-006-010-012-015-018-020-021-024-026-027-029-221900-
MAINE
  
CITY           SKY/WX    TMP DP  RH WIND       PRES   REMARKS
PORTLAND       PTSUNNY   65  37  35 N10G20    30.16S                  
6HR MIN TEMP:  53; 6HR MAX TEMP:  66;                                

SANFORD        FAIR      67  34  29 N20G25    30.15F                  
BAR HARBOR     PTSUNNY   59  38  45 NW13G24   30.14S                  
WISCASSET      PTSUNNY   63  35  35 NW10G16   30.17S                  
6HR MIN TEMP:  52; 6HR MAX TEMP:  64;                                

ROCKLAND       PTSUNNY   61  38  42 N8        30.15S                  
FRYEBURG       FAIR      65  34  31 N15G21    30.17F                  
6HR MIN TEMP:  53; 6HR MAX TEMP:  65;                                

LEWISTONAUBURN PTSUNNY   63  36  36 NE17      30.16F                  
AUGUSTA        FAIR      61  36  39 N20G26    30.18R                  
6HR MIN TEMP:  50; 6HR MAX TEMP:  62;                                

WATERVILLE     PTSUNNY   61  37  41 N12G18    30.15S                  
BANGOR         PTSUNNY   60  37  42 N16G22    30.17R                  
6HR MIN TEMP:  50; 6HR MAX TEMP:  60;                                

GREENVILLE       N/A     55  36  48 NW13G20   30.14F                  
6HR MIN TEMP:  42; 6HR MAX TEMP:  55;                                

MILLINOCKET    CLOUDY    59  36  42 N10G20    30.17S                  
6HR MIN TEMP:  50; 6HR MAX TEMP:  60;                                

HOULTON        CLOUDY    54  39  57 N12       30.14R                  
6HR MIN TEMP:  45; 6HR MAX TEMP:  54;                                

PRESQUE ISLE   CLOUDY    53  39  59 N13       30.17S                  
6HR MIN TEMP:  45; 6HR MAX TEMP:  54;                                

FRENCHVILLE    CLOUDY    54  38  54 N12G20    30.16S                  
6HR MIN TEMP:  45; 6HR MAX TEMP:  54;                                

CARIBOU        CLOUDY    54  39  57 N9        30.15S                  
6HR MIN TEMP:  45; 6HR MAX TEMP:  55;                                

$$

NHZ002-005-008-009-011-012-014-221900-
NEW HAMPSHIRE
  
CITY           SKY/WX    TMP DP  RH WIND       PRES   REMARKS
PORTSMOUTH     PTSUNNY   66  37  34 E13G22    30.15S                  
ROCHESTER      FAIR      69  35  28 N12G20    30.15F                  
6HR MIN TEMP:  54; 6HR MAX TEMP:  69;                                

NASHUA         FAIR      69  35  28 NW17G23   30.17F                  
MANCHESTER     PTSUNNY   69  30  23 N10G18    30.15F                  
6HR MIN TEMP:  55; 6HR MAX TEMP:  70;                                

CONCORD        FAIR      67  33  28 NW16G23   30.17F                  
6HR MIN TEMP:  53; 6HR MAX TEMP:  68;                                

LACONIA        FAIR      65  33  30 NW9       30.18S                  
PLYMOUTH       FAIR      65  32  29 W9G20     30.18S                  
BERLIN         FAIR      62  33  33 NW13G23   30.18F                  
6HR MIN TEMP:  47; 6HR MAX TEMP:  63;                                

WHITEFIELD     FAIR      62  33  33 N16G25    30.19F                  
6HR MIN TEMP:  46; 6HR MAX TEMP:  62;                                

JAFFREY        FAIR      66  29  24 NW12G17   30.19F                  
6HR MIN TEMP:  52; 6HR MAX TEMP:  67;                                

KEENE          FAIR      67  32  27 N12G21    30.19F                  
LEBANON        FAIR      69  35  28 NW13G21   30.19F                  
6HR MIN TEMP:  51; 6HR MAX TEMP:  69;                                

MT WASHINGTON  PTSUNNY   30  25  80 NW31G39     N/A  WCI  15          
6HR MIN TEMP:  22; 6HR MAX TEMP:  30;                                

$$

VTZ005-007-008-221900-
VERMONT
  
CITY           SKY/WX    TMP DP  RH WIND       PRES   REMARKS
ST JOHNSBURY     N/A     63  33  32 MISG      30.19F                  
MONTPELIER     FAIR      62  35  36 N13G20    30.25F                  
BURLINGTON     PTSUNNY   64  36  35 N14       30.25F                  
$$

MAZ007-012-024-CTZ003-RIZ002-NYZ038-NYZ072-221900-
SOUTHERN NEW ENGLAND AND NY
  
CITY           SKY/WX    TMP DP  RH WIND       PRES   REMARKS
BOSTON         PTSUNNY   63  42  46 E17       30.17F                  
WORCESTER      FAIR      66  35  31 N9G17     30.17F                  
NANTUCKET      FAIR      58  38  47 N10       30.21R                  
PROVIDENCE     PTSUNNY   68  36  30 CALM      30.17F                  
HARTFORD       PTSUNNY   73  34  23 VRB6      30.18F                  
ALBANY         FAIR      68  37  32 VRB3      30.23F                  
NEW YORK CITY  PTSUNNY   71  31  22 N14       30.21F                  
$$

ANZ081-ANZ082-ANZ150-NHZ014-MEZ023>029-221900-
COASTAL MARINE OBSERVATIONS
  
STATION/POSITION TIME  TEMP    WIND        PRES    WAVE
                       AIR SEA DIR/SP/G            HT/PER
                 (UTC) (F)     (DEG/KT/KT) (MB)    (FT/S)
ISLE OF SHOALS   1800   52     130/ 13/ 13 1021.4S
JEFFREYS LEDGE   1738      49                N/A     2/ 5
GEORGES BANK BUO 1800   46     350/ 19/ 23 1020.1
$$

.............KEY..............
   WCI - WIND CHILL
   TC  - TEMPERATURE IN CELSIUS
   VSB - VISIBILITY IN MILES
   HX  - HEAT INDEX
   FAIR- INDICATES FEW OR NO CLOUDS BELOW 12,000 FT, WITH NO 
         SIGNIFICANT WEATHER AND/OR OBSTRUCTIONS TO VISIBILITY.